Regional Weather Roundup
Issued by NWS

Home | Current Version | Previous Version | Graphics & Text | Print | Product List | Glossary Off
Versions: 1 2 3 4 5 6 7 8 9 10 11 12 13 14 15 16 17 18 19 20 21 22 23 24 25 26 27 28 29 30 31 32 33 34 35 36 37 38 39 40 41 42 43 44 45 46 47 48 49 50

000
ASUS43 KFSD 260902
RWRSD

WEATHER ROUNDUP FOR SOUTH DAKOTA
NATIONAL WEATHER SERVICE SIOUX FALLS SD
400 AM CDT WED APR 26 2017

NOTE: "FAIR" INDICATES FEW OR NO CLOUDS BELOW 12,000 FEET WITH NO
SIGNIFICANT WEATHER AND/OR OBSTRUCTIONS TO VISIBILITY.


SDZ001>005-009-010-012>017-261000-
NORTHWEST AND NORTH CENTRAL SOUTH DAKOTA

CITY           SKY/WX    TMP DP  RH WIND       PRES   REMARKS
BUFFALO          N/A     31  25  78 NW10      29.80F WCI  22
FAITH            N/A     31  28  89 N17       29.84F WCI  19
MOBRIDGE       CLOUDY    34  23  64 N18G28    29.79F WCI  23
$$

SDZ012>016-024>037-041>051-057-063-072>074-261000-
SOUTHWEST AND SOUTH CENTRAL SOUTH DAKOTA

CITY           SKY/WX    TMP DP  RH WIND       PRES   REMARKS
RAPID CTY ARPT CLOUDY    28  24  85 NW20      29.86F WCI  15
PIERRE         CLOUDY    32  28  85 NW15      29.79F WCI  22
CUSTER         CLOUDY    24  21  88 W3        29.76F
ELLSWORTH AFB  CLOUDY    28  27  99 NW16      29.84  WCI  15
PHILIP         CLOUDY    31  29  92 NW12      29.84F WCI  22
PINE RIDGE     CLOUDY    29  26  89 NW9       29.84F WCI  20
SPEARFISH      CLOUDY    25  23  93 NW8G15    29.86F WCI  16
WINNER         CLOUDY    32  29  88 NW20      29.77F WCI  20
$$

SDZ004>011-016>023-039-040-261000-
NORTHEAST SOUTH DAKOTA

CITY           SKY/WX    TMP DP  RH WIND       PRES   REMARKS
ABERDEEN       LGT SNOW  30  27  88 N20G26    29.76F FOG     WCI  17
WATERTOWN      CLOUDY    31  30  96 N15       29.65F FOG     WCI  20
BROOKINGS      MIX PCPN  32  31  96 N18G24    29.61F WCI  20
SISSETON         N/A     32  31  96 N20       29.70S WCI  20
$$

SDZ017-020-022-023-036>040-048>070-261000-
SOUTHEAST SOUTH DAKOTA

CITY           SKY/WX    TMP DP  RH WIND       PRES   REMARKS
SIOUX FALLS    CLOUDY    36  34  92 NW16G26   29.62S
HURON          CLOUDY    32  31  96 N16       29.72F WCI  21
CHAMBERLAIN    CLOUDY    34  32  92 W18       29.76F WCI  23
MITCHELL       FRZ RAIN  33  32  96 NW21G29   29.71F FOG     WCI  21
YANKTON        CLOUDY   N/A N/A N/A NW23G33   29.66R
$$

ABBREVIATIONS USED IN REMARKS
   TC - TEMPERATURE IN CELSIUS
  WCI - WIND CHILL INDEX
   HX - HEAT INDEX
  VSB - VISIBILITY





USA.gov is the U.S. government's official web portal to all federal, state and local government web resources and services.